User: anonymous   Login
Location: Ch�teau-Arnoux
(44.0814°N, 6.0027°E)
Time: 17:43:20
(UTC+00:00)
Language:

Cosmos 1515 Rocket - Orbit

View from above orbital plane
View from above orbital plane
View from above satellite
View from above satellite

Ground track
Ground track

The orbit data is extracted from the following two-line orbital elements,

1 14552U 83122B   20024.42339743  .00000078  00000-0  66145-5 0  9998
2 14552  82.5238 266.0316 0015701 262.1625  97.7808 14.83497555950205
Epoch (UTC): 24 January 2020 10:09:41
Eccentricity: 0.0015701
inclination: 82.5238°
perigee height: 607 km
apogee height: 629 km
right ascension of ascending node: 266.0316°
argument of perigee: 262.1625°
revolutions per day: 14.83497555
mean anomaly at epoch: 97.7808°
orbit number at epoch: 95020

The dashed part of the orbit path shows where the satellite is in the earth's shadow,  

DLR